Back to catalog

FENGYUN 1C DEB

AlivePO
NORAD 36167·DEBRIS·🇨🇳 China

Launched May 10, 1999 from Taiyuan Satellite Launch Center

Loading…

Next Passes (next 24 hours)

TLE

FreshSource: Space-Track

Epoch: Sep 14, 2026, 01:42 UTC

1 36167U 99025DSQ 26257.07099588  .00001950  00000-0  49050-3 0  9992
2 36167  98.8085 181.9134 0068105 131.8293 228.8743 14.51044546712702

Track FENGYUN 1C DEB in real time with AllMySat

Download on the App Store